STARLINK-5800, 56041

Orbit data source: Space-Track

STARLINK-5800, 56041 is a payload satellite owned by SpaceX/Seattle (US) in LEO that was launched on Fri, 24 Mar 2023 UTC via an FALCON 9 launch vehicle from the Air Force Eastern Test Range (AFETR). Payload-class satellites include a variety of spacecraft equipped with specific instruments for various scientific and technological missions. These include communications satellites like Starlink; space stations such as the ISS; scientific satellites like the Hubble; Earth observation satellites from companies like Planet Labs, Umbra, and HawkEye 360; GPS; miniature CubeSats for education and research; and military/defense satellites.

Loading next visibility...
Identifier
56041, 2023-042BH
Orbit
LEO
Country
Flag of USUS
Related business
Manufacturer
SpaceX/Seattle
Mission
Operational Commercial Communications
Bus & Motor
STARLINK, Unknown motor
Mass
305 kg wet, ~290 kg dry
Launch date (UTC)
2023-03-24 (3 years ago)
Launch vehicle
FALCON 9
Launch site
Air Force Eastern Test Range (AFETR)
Object type
Payload
Rocket body
Debris
Shape & HBR
Box + 1 Pan, 10.1 m
Radar Cross Section
11.087 m², Large (>1 m²)

Expand to show TLE details & history
Last TLE update: 2 days ago

TLE from 2 days ago
0 STARLINK-5800
1 56041U 23042BH  26171.08247349  .00001504  00000-0  64157-4 0  9998
2 56041  43.0022 175.7233 0001526 283.9854  76.0828 15.27585480178822
Epoch: 2026-06-20T01:58Z
TLE epoch observation values (Epoch: 2026-06-20T01:58:45.709Z)
Latitude
-0.00002°
Longitude
-122.26937°
Altitude
482.557 km
Speed
7.626 km/s
True Right ascension
11h 42m 53s
True Declination
0° 00' 00"
Sunlit
Object was in daylight at epoch
Visualization orbit readout
Latitude
Unknown
Longitude
Unknown
Altitude
Unknown
Speed
Unknown
Apparent Right ascension
Unknown
Apparent Declination
Unknown
Sunlit
N/A
Visualization observer readout
Local Sidereal Time
21:25:44
Azimuth
Unknown
Elevation
Unknown
Doppler factor
Unknown
Orbital elements
Apogee altitude
486.025 km
Perigee altitude
483.93 km
Semi-major axis
6,863.114 km
Eccentricity
0.00015
Inclination
43.0022°
RAAN
175.7233°
Arg. of periapsis
283.9854°
True anomaly
76.09977°
Mean anomaly
76.0828°
Eccentric anomaly
76.09129°
Mean motion
3.81734 °/min
Orbital period
94.31 mins
BSTAR
0.000064157
Loading maneuver chart data...
Computing Atmospheric mass density...
Loading historical data...
Loading historical data...
Loading historical data...
Loading historical data...
Loading historical data...
Loading historical data...
Loading historical data...

Documentation

Showing up to 5 results
|